| time (UTC) | temp F | wind direction | speed MPH | gust MPH | rain 1hr in | rain 24hr in | rain mn in | humidity % | barometer mb |
| 20260902232031 | 57 | 153 | 1.0 | 2.0 | 0.00 | 0.01 | 0.00 | 89 | |
| 20260902231020 | 57 | 148 | 1.0 | 2.0 | 0.00 | 0.01 | 0.00 | 89 | |
| 20260902230028 | 57 | 149 | 0.0 | 1.0 | 0.00 | 0.01 | 0.00 | 88 | |
| 20260902225020 | 57 | 141 | 1.0 | 3.0 | 0.00 | 0.01 | 0.00 | 88 | |
| 20260902224028 | 57 | 136 | 1.0 | 2.0 | 0.00 | 0.01 | 0.00 | 88 | |
| 20260902223020 | 57 | 194 | 0.0 | 2.0 | 0.00 | 0.01 | 0.00 | 87 | |
| 20260902222028 | 57 | 314 | 0.0 | 2.0 | 0.00 | 0.01 | 0.00 | 87 | |
| 20260902221020 | 57 | 0.0 | 0.0 | 0.00 | 0.01 | 0.00 | 86 | ||
| 20260902220029 | 58 | 178 | 0.0 | 1.0 | 0.00 | 0.01 | 0.00 | 86 | |
| 20260902215019 | 57 | 180 | 0.0 | 1.0 | 0.00 | 0.01 | 0.01 | 87 | |
| 20260902214029 | 57 | 162 | 0.0 | 2.0 | 0.00 | 0.01 | 0.01 | 88 | |
| 20260902213020 | 57 | 176 | 0.0 | 2.0 | 0.00 | 0.01 | 0.01 | 88 | |
| 20260902212028 | 56 | 139 | 0.0 | 1.0 | 0.00 | 0.01 | 0.01 | 90 | |
| 20260902211020 | 56 | 0.0 | 0.0 | 0.00 | 0.01 | 0.01 | 90 | ||
| 20260902210028 | 56 | 0.0 | 0.0 | 0.00 | 0.01 | 0.01 | 90 | ||
| 20260902205027 | 55 | 0.0 | 0.0 | 0.00 | 0.01 | 0.01 | 90 | ||
| 20260902204028 | 55 | 0.0 | 0.0 | 0.00 | 0.01 | 0.01 | 89 | ||
| 20260902203020 | 56 | 0.0 | 0.0 | 0.00 | 0.01 | 0.01 | 88 | ||
| 20260902202028 | 56 | 148 | 0.0 | 2.0 | 0.00 | 0.01 | 0.01 | 89 | |
| 20260902201020 | 55 | 162 | 0.0 | 1.0 | 0.00 | 0.01 | 0.01 | 89 | |
| 20260902200024 | 55 | 0.0 | 0.0 | 0.00 | 0.01 | 0.01 | 88 | ||
| 20260902195019 | 56 | 0.0 | 0.0 | 0.00 | 0.01 | 0.01 | 88 | ||
| 20260902194028 | 56 | 0.0 | 0.0 | 0.00 | 0.01 | 0.01 | 86 | ||
| 20260902193022 | 56 | 0.0 | 0.0 | 0.00 | 0.01 | 0.01 | 85 | ||
| 20260902192023 | 57 | 0.0 | 1.0 | 0.00 | 0.01 | 0.01 | 84 | ||
| 20260902191022 | 58 | 0.0 | 0.0 | 0.00 | 0.01 | 0.01 | 81 | ||
| 20260902190029 | 59 | 0.0 | 0.0 | 0.00 | 0.01 | 0.01 | 80 | ||
| 20260902185022 | 59 | 0.0 | 0.0 | 0.00 | 0.01 | 0.01 | 79 | ||
| 20260902184029 | 60 | 0.0 | 0.0 | 0.00 | 0.01 | 0.01 | 78 | ||
| 20260902183020 | 60 | 0.0 | 0.0 | 0.00 | 0.01 | 0.01 | 78 | ||
| 20260902182021 | 61 | 0.0 | 0.0 | 0.00 | 0.01 | 0.01 | 77 | ||
| 20260902181019 | 62 | 0.0 | 0.0 | 0.00 | 0.01 | 0.01 | 76 | ||
| 20260902180028 | 63 | 336 | 0.0 | 1.0 | 0.00 | 0.01 | 0.01 | 73 | |
| 20260902175020 | 64 | 0.0 | 0.0 | 0.00 | 0.01 | 0.01 | 69 | ||
| 20260902174028 | 65 | 0.0 | 0.0 | 0.00 | 0.01 | 0.01 | 64 | ||
| 20260902173021 | 66 | 331 | 0.0 | 2.0 | 0.00 | 0.01 | 0.01 | 61 | |
| 20260902172031 | 67 | 348 | 1.0 | 3.0 | 0.00 | 0.01 | 0.01 | 59 | |
| 20260902171020 | 67 | 342 | 1.0 | 3.0 | 0.00 | 0.01 | 0.01 | 58 | |
| 20260902170028 | 68 | 343 | 2.0 | 3.0 | 0.00 | 0.01 | 0.01 | 56 | |
| 20260902165020 | 68 | 344 | 2.0 | 4.0 | 0.00 | 0.01 | 0.01 | 57 | |
| 20260902164029 | 68 | 352 | 2.0 | 5.0 | 0.00 | 0.01 | 0.01 | 57 | |
| 20260902163020 | 69 | 346 | 1.0 | 3.0 | 0.00 | 0.01 | 0.01 | 58 | |
| 20260902162029 | 69 | 333 | 1.0 | 3.0 | 0.00 | 0.01 | 0.01 | 58 | |
| 20260902161024 | 69 | 340 | 1.0 | 3.0 | 0.00 | 0.01 | 0.01 | 57 | |
| 20260902160029 | 69 | 349 | 1.0 | 3.0 | 0.00 | 0.01 | 0.01 | 56 | |
| 20260902155019 | 70 | 341 | 2.0 | 4.0 | 0.00 | 0.01 | 0.01 | 56 | |
| 20260902154044 | 70 | 345 | 2.0 | 3.0 | 0.00 | 0.01 | 0.01 | 59 | |
| 20260902153020 | 70 | 356 | 3.0 | 4.0 | 0.00 | 0.01 | 0.01 | 58 | |
| 20260902152028 | 70 | 351 | 2.0 | 4.0 | 0.00 | 0.01 | 0.01 | 57 | |
| 20260902151021 | 70 | 347 | 2.0 | 4.0 | 0.00 | 0.01 | 0.01 | 54 | |
| 20260902150028 | 71 | 346 | 4.0 | 10.0 | 0.00 | 0.01 | 0.01 | 53 | |
| 20260902145019 | 71 | 344 | 3.0 | 6.0 | 0.00 | 0.01 | 0.01 | 54 | |
| 20260902144028 | 71 | 344 | 1.0 | 3.0 | 0.00 | 0.01 | 0.01 | 55 | |
| 20260902143020 | 71 | 351 | 2.0 | 6.0 | 0.00 | 0.01 | 0.01 | 55 | |
| 20260902142028 | 72 | 349 | 2.0 | 4.0 | 0.00 | 0.01 | 0.01 | 54 | |
| 20260902141021 | 71 | 342 | 2.0 | 4.0 | 0.00 | 0.01 | 0.01 | 57 | |
| 20260902140030 | 70 | 357 | 3.0 | 5.0 | 0.00 | 0.02 | 0.01 | 59 | |
| 20260902135020 | 72 | 329 | 2.0 | 6.0 | 0.00 | 0.02 | 0.01 | 57 | |
| 20260902134030 | 71 | 1 | 1.0 | 3.0 | 0.00 | 0.02 | 0.01 | 61 | |
| 20260902133020 | 71 | 343 | 2.0 | 4.0 | 0.00 | 0.02 | 0.01 | 61 | |
| 20260902132030 | 70 | 347 | 1.0 | 4.0 | 0.00 | 0.02 | 0.01 | 63 | |
| 20260902131020 | 69 | 354 | 2.0 | 4.0 | 0.00 | 0.02 | 0.01 | 67 | |
| 20260902130026 | 69 | 346 | 3.0 | 7.0 | 0.00 | 0.02 | 0.01 | 66 | |
| 20260902125020 | 70 | 345 | 3.0 | 7.0 | 0.00 | 0.02 | 0.01 | 67 | |
| 20260902124028 | 70 | 342 | 2.0 | 4.0 | 0.00 | 0.02 | 0.01 | 71 | |
| 20260902123021 | 69 | 3 | 2.0 | 7.0 | 0.00 | 0.02 | 0.01 | 70 | |
| 20260902122028 | 70 | 344 | 3.0 | 5.0 | 0.00 | 0.02 | 0.01 | 68 | |
| 20260902121022 | 72 | 6 | 1.0 | 5.0 | 0.00 | 0.02 | 0.01 | 67 | |
| 20260902120030 | 70 | 356 | 1.0 | 3.0 | 0.00 | 0.02 | 0.01 | 70 | |
| 20260902115020 | 71 | 349 | 1.0 | 3.0 | 0.00 | 0.02 | 0.01 | 68 | |
| 20260902114028 | 71 | 3 | 1.0 | 2.0 | 0.00 | 0.02 | 0.01 | 69 | |
| 20260902113021 | 70 | 44 | 1.0 | 4.0 | 0.00 | 0.02 | 0.01 | 70 | |
| 20260902112020 | 70 | 2 | 1.0 | 4.0 | 0.00 | 0.02 | 0.01 | 72 | |
| 20260902111021 | 69 | 348 | 1.0 | 3.0 | 0.00 | 0.02 | 0.01 | 72 | |
| 20260902110020 | 68 | 236 | 1.0 | 3.0 | 0.00 | 0.02 | 0.01 | 72 | |
| 20260902105020 | 66 | 153 | 1.0 | 2.0 | 0.00 | 0.02 | 0.01 | 79 | |
| 20260902104028 | 66 | 145 | 1.0 | 4.0 | 0.00 | 0.02 | 0.01 | 80 | |
| 20260902103021 | 66 | 154 | 1.0 | 3.0 | 0.00 | 0.02 | 0.01 | 78 | |
| 20260902102030 | 67 | 146 | 1.0 | 4.0 | 0.00 | 0.02 | 0.01 | 77 | |
| 20260902101022 | 67 | 136 | 1.0 | 3.0 | 0.00 | 0.02 | 0.01 | 78 | |
| 20260902100027 | 67 | 140 | 1.0 | 4.0 | 0.00 | 0.02 | 0.01 | 77 | |
| 20260902095020 | 67 | 173 | 1.0 | 4.0 | 0.00 | 0.02 | 0.01 | 77 | |
| 20260902094033 | 66 | 160 | 1.0 | 4.0 | 0.00 | 0.02 | 0.01 | 77 | |
| 20260902093021 | 65 | 164 | 1.0 | 3.0 | 0.00 | 0.02 | 0.01 | 80 | |
| 20260902092030 | 65 | 168 | 1.0 | 3.0 | 0.00 | 0.02 | 0.01 | 80 | |
| 20260902091020 | 64 | 165 | 1.0 | 4.0 | 0.00 | 0.02 | 0.01 | 81 | |
| 20260902090029 | 65 | 149 | 1.0 | 4.0 | 0.00 | 0.02 | 0.01 | 81 | |
| 20260902085022 | 64 | 166 | 2.0 | 4.0 | 0.00 | 0.02 | 0.01 | 81 | |
| 20260902084025 | 63 | 153 | 2.0 | 4.0 | 0.00 | 0.02 | 0.01 | 85 | |
| 20260902083022 | 62 | 166 | 2.0 | 5.0 | 0.00 | 0.02 | 0.01 | 87 | |
| 20260902082028 | 61 | 164 | 2.0 | 4.0 | 0.00 | 0.02 | 0.01 | 89 | |
| 20260902081020 | 60 | 191 | 1.0 | 3.0 | 0.00 | 0.02 | 0.01 | 91 | |
| 20260902080044 | 59 | 168 | 2.0 | 4.0 | 0.00 | 0.02 | 0.01 | 92 | |
| 20260902075020 | 58 | 159 | 1.0 | 3.0 | 0.00 | 0.02 | 0.01 | 93 | |
| 20260902074028 | 58 | 149 | 1.0 | 3.0 | 0.00 | 0.02 | 0.01 | 95 | |
| 20260902073021 | 57 | 128 | 1.0 | 2.0 | 0.00 | 0.02 | 0.01 | 96 | |
| 20260902072028 | 57 | 141 | 0.0 | 1.0 | 0.00 | 0.02 | 0.01 | 97 | |
| 20260902071022 | 56 | 169 | 0.0 | 2.0 | 0.00 | 0.02 | 0.01 | 98 | |
| 20260902070029 | 56 | 156 | 0.0 | 2.0 | 0.00 | 0.02 | 0.01 | 98 | |
| 20260902065021 | 56 | 153 | 0.0 | 2.0 | 0.00 | 0.02 | 0.01 | 99 | |
| 20260902064029 | 55 | 151 | 0.0 | 2.0 | 0.00 | 0.02 | 0.01 | 99 | |
| 20260902063020 | 54 | 161 | 0.0 | 2.0 | 0.00 | 0.02 | 0.01 | 99 | |
| 20260902062031 | 54 | 137 | 0.0 | 1.0 | 0.00 | 0.02 | 0.01 | 99 | |
| 20260902061022 | 54 | 146 | 0.0 | 1.0 | 0.00 | 0.02 | 0.01 | 99 | |
| 20260902060024 | 54 | 0.0 | 0.0 | 0.00 | 0.02 | 0.01 | 99 | ||
| 20260902055020 | 53 | 148 | 1.0 | 3.0 | 0.00 | 0.02 | 0.01 | 99 | |
| 20260902054020 | 53 | 155 | 0.0 | 2.0 | 0.00 | 0.02 | 0.01 | 99 | |
| 20260902053020 | 53 | 0.0 | 0.0 | 0.00 | 0.02 | 0.01 | 99 | ||
| 20260902052028 | 52 | 152 | 0.0 | 2.0 | 0.00 | 0.02 | 0.01 | 99 | |
| 20260902051022 | 52 | 0.0 | 1.0 | 0.00 | 0.02 | 0.01 | 99 | ||
| 20260902050029 | 52 | 157 | 0.0 | 2.0 | 0.01 | 0.02 | 0.01 | 99 | |
| 20260902045020 | 52 | 182 | 0.0 | 2.0 | 0.01 | 0.02 | 0.01 | 99 | |
| 20260902044028 | 52 | 144 | 1.0 | 2.0 | 0.01 | 0.02 | 0.01 | 99 | |
| 20260902043020 | 51 | 0.0 | 0.0 | 0.01 | 0.02 | 0.01 | 99 | ||
| 20260902042022 | 51 | 166 | 0.0 | 1.0 | 0.01 | 0.02 | 0.01 | 99 | |
| 20260902041020 | 51 | 0.0 | 0.0 | 0.01 | 0.02 | 0.01 | 99 | ||
| 20260902040028 | 51 | 147 | 0.0 | 1.0 | 0.00 | 0.01 | 0.00 | 99 | |
| 20260902035021 | 51 | 0.0 | 0.0 | 0.00 | 0.01 | 0.00 | 99 | ||
| 20260902034030 | 51 | 0.0 | 0.0 | 0.00 | 0.01 | 0.00 | 99 | ||
| 20260902033020 | 50 | 0.0 | 0.0 | 0.00 | 0.01 | 0.00 | 98 | ||
| 20260902032025 | 50 | 0.0 | 0.0 | 0.00 | 0.01 | 0.00 | 98 | ||
| 20260902031020 | 50 | 0.0 | 0.0 | 0.00 | 0.01 | 0.00 | 98 | ||
| 20260902030028 | 51 | 0.0 | 1.0 | 0.00 | 0.01 | 0.00 | 99 | ||
| 20260902025020 | 50 | 0.0 | 0.0 | 0.00 | 0.01 | 0.00 | 98 | ||
| 20260902024027 | 50 | 0.0 | 0.0 | 0.00 | 0.01 | 0.00 | 98 | ||
| 20260902023020 | 50 | 0.0 | 0.0 | 0.00 | 0.01 | 0.00 | 98 | ||
| 20260902022028 | 50 | 0.0 | 0.0 | 0.00 | 0.01 | 0.00 | 98 | ||
| 20260902021020 | 49 | 0.0 | 0.0 | 0.00 | 0.01 | 0.00 | 98 | ||
| 20260902020032 | 49 | 0.0 | 0.0 | 0.00 | 0.01 | 0.00 | 98 | ||
| 20260902015023 | 48 | 351 | 0.0 | 2.0 | 0.00 | 0.01 | 0.00 | 98 | |
| 20260902014029 | 48 | 352 | 1.0 | 2.0 | 0.00 | 0.01 | 0.00 | 97 | |
| 20260902013020 | 50 | 359 | 1.0 | 2.0 | 0.00 | 0.01 | 0.00 | 97 | |
| 20260902012028 | 51 | 0.0 | 0.0 | 0.00 | 0.01 | 0.00 | 98 | ||
| 20260902011021 | 51 | 237 | 0.0 | 1.0 | 0.00 | 0.01 | 0.00 | 98 | |
| 20260902010030 | 50 | 0.0 | 0.0 | 0.00 | 0.01 | 0.00 | 98 | ||
| 20260902005022 | 50 | 0.0 | 0.0 | 0.00 | 0.01 | 0.00 | 98 | ||
| 20260902004028 | 50 | 0.0 | 0.0 | 0.00 | 0.01 | 0.00 | 98 | ||
| 20260902003020 | 50 | 0.0 | 0.0 | 0.00 | 0.01 | 0.00 | 98 | ||
| 20260902002021 | 50 | 0.0 | 0.0 | 0.00 | 0.01 | 0.00 | 98 | ||
| 20260902001020 | 50 | 0.0 | 0.0 | 0.00 | 0.01 | 0.00 | 97 | ||
| 20260902000029 | 50 | 0.0 | 0.0 | 0.00 | 0.01 | 0.00 | 97 | ||
| 20260901235020 | 50 | 0.0 | 0.0 | 0.00 | 0.01 | 0.00 | 97 | ||
| 20260901234028 | 50 | 0.0 | 0.0 | 0.00 | 0.01 | 0.00 | 97 | ||
| 20260901233020 | 51 | 0.0 | 0.0 | 0.00 | 0.01 | 0.00 | 97 |